Date String (YYYY-MM-DD hh:mm:ss) UTC,Instrument flags,absolute air pressure of the measurement (hPa),sample flow rate (lpm),inlet stack bypass flow (lpm),air temperature of the measurement (°C),ambient temperature measured by the external sensor (°C),aerosol sample conditioner tube jacket temperature (°C),OPC LED temperature (°C),internal box temperature (°C),relative humidity of the measurement (%),span deviation,mass concentration of particles derived from Lorenz-Mie calculation of OPC scattering (μg/m³),mass concentration of particles derived from Lorenz-Mie calculation of OPC scattering (μg/m³),mass concentration of particles derived from Lorenz-Mie calculation of OPC scattering (μg/m³)
DateTimeUTC,F1_M11,P_M11,Q1_M11,Q2_M11,T1_M11,T2_M11,T3_M11,T4_M11,T5_M11,U1_M11,ZSPAN_M11,X0_M11,X2_M11,X1_M11
2024-04-15 02:00:00,SystemResetWarning,0821.3,4.99,000.00,024.2,022.1,000.0,032.9,025.5,011.0,0000.0,0023.10,0004.27,0002.53
2024-04-15 02:01:00,SystemResetWarning,0821.2,5.00,000.00,024.3,022.5,000.0,032.8,025.8,011.0,0000.0,0023.13,0004.30,0002.54
2024-04-15 02:02:00,SystemResetWarning,0821.2,5.00,000.00,024.3,022.9,000.0,032.8,026.1,010.8,0000.0,0023.87,0004.37,0002.55
2024-04-15 02:03:00,SystemResetWarning,0821.3,5.00,000.00,024.4,023.2,000.0,032.8,026.2,011.0,0000.0,0024.90,0004.35,0002.57
2024-04-15 02:04:00,SystemResetWarning,0821.3,4.99,000.00,024.5,023.5,000.0,032.8,026.4,011.1,0000.0,0024.47,0004.32,0002.57
2024-04-15 02:05:00,SystemResetWarning,0821.2,5.00,000.00,024.6,023.7,000.0,032.8,026.5,011.0,0000.0,0025.09,0004.37,0002.59
2024-04-15 02:06:00,SystemResetWarning,0821.2,5.01,000.00,024.7,024.0,000.0,032.8,026.6,010.8,0000.0,0025.10,0004.39,0002.59
2024-04-15 02:07:00,SystemResetWarning,0821.3,5.00,000.00,024.8,024.2,000.0,032.9,026.8,010.6,0000.0,0023.96,0004.37,0002.59
2024-04-15 02:08:00,SystemResetWarning,0821.3,5.00,000.00,024.9,024.4,000.0,032.9,026.9,010.6,0000.0,0020.97,0004.22,0002.60
2024-04-15 02:09:00,SystemResetWarning,0821.3,5.00,000.00,025.0,024.6,000.0,032.9,027.0,010.5,0000.0,0019.96,0004.23,0002.62
2024-04-15 02:10:00,SystemResetWarning,0821.3,5.00,000.00,025.0,024.7,000.0,033.0,027.1,010.3,0000.0,0018.69,0004.33,0002.64
2024-04-15 02:11:00,SystemResetWarning,0821.3,5.00,000.00,025.1,024.8,000.0,033.1,027.1,010.3,0000.0,0017.82,0004.35,0002.65
2024-04-15 02:12:00,SystemResetWarning,0821.3,4.99,000.00,025.2,024.8,000.0,033.1,027.1,010.3,0000.0,0017.40,0004.32,0002.66
2024-04-15 02:13:00,SystemResetWarning,0821.2,4.98,000.00,025.0,023.1,000.0,033.2,026.1,010.4,0000.0,0017.31,0004.23,0002.66
2024-04-15 02:14:00,SystemResetWarning,0821.2,5.01,000.00,024.7,022.1,000.0,033.2,025.5,010.4,0000.0,0016.64,0004.26,0002.65
2024-04-15 02:15:00,SystemResetWarning,0821.2,5.01,000.00,024.5,022.3,000.0,033.2,025.5,010.6,0000.0,0016.89,0004.32,0002.65
2024-04-15 02:16:00,SystemResetWarning,0821.2,4.99,000.00,024.5,022.6,000.0,033.0,025.9,010.6,0000.0,0017.13,0004.29,0002.65
2024-04-15 02:17:00,SystemResetWarning,0821.2,5.00,000.00,024.6,023.0,000.0,033.0,026.2,010.6,0000.0,0016.66,0004.24,0002.63
2024-04-15 02:18:00,SystemResetWarning,0821.2,5.00,000.00,024.6,023.3,000.0,033.0,026.4,010.5,0000.0,0015.90,0004.24,0002.65
2024-04-15 02:19:00,SystemResetWarning,0821.3,5.00,000.00,024.7,023.6,000.0,033.0,026.6,010.5,0000.0,0015.83,0004.22,0002.66
2024-04-15 02:20:00,SystemResetWarning,0821.3,5.01,000.00,024.8,023.9,000.0,033.0,026.7,010.4,0000.0,0015.95,0004.22,0002.66
2024-04-15 02:21:00,SystemResetWarning,0821.3,5.00,000.00,024.9,024.2,000.0,033.0,026.8,010.4,0000.0,0016.25,0004.18,0002.69
2024-04-15 02:22:00,SystemResetWarning,0821.3,5.00,000.00,025.0,024.4,000.0,033.1,026.9,010.3,0000.0,0015.57,0004.15,0002.68
2024-04-15 02:23:00,SystemResetWarning,0821.3,5.00,000.00,025.1,024.5,000.0,033.1,027.0,010.3,0000.0,0016.06,0004.16,0002.68
2024-04-15 02:24:00,SystemResetWarning,0821.3,5.00,000.00,025.1,024.7,000.0,033.1,027.1,010.3,0000.0,0015.99,0004.21,0002.68
2024-04-15 02:25:00,SystemResetWarning,0821.3,5.00,000.00,025.2,024.8,000.0,033.2,027.2,010.4,0000.0,0015.90,0004.21,0002.69
2024-04-15 02:26:00,SystemResetWarning,0821.3,5.00,000.00,025.3,024.7,000.0,033.2,027.1,010.4,0000.0,0015.55,0004.18,0002.68
2024-04-15 02:27:00,SystemResetWarning,0821.2,4.99,000.00,025.0,022.8,000.0,033.3,026.0,010.7,0000.0,0015.47,0004.16,0002.68
2024-04-15 02:28:00,SystemResetWarning,0821.2,5.02,000.00,024.5,021.1,000.0,033.3,024.9,011.1,0000.0,0016.11,0004.20,0002.70
2024-04-15 02:29:00,SystemResetWarning,0821.2,5.01,000.00,024.3,021.2,000.0,033.2,024.9,011.2,0000.0,0016.92,0004.21,0002.70
2024-04-15 02:30:00,SystemResetWarning,0821.2,4.99,000.00,024.2,021.6,000.0,033.1,025.2,011.5,0000.0,0018.37,0004.23,0002.70
2024-04-15 02:31:00,SystemResetWarning,0821.2,5.00,000.00,024.2,022.1,000.0,033.0,025.5,011.5,0000.0,0018.52,0004.24,0002.69
2024-04-15 02:32:00,SystemResetWarning,0821.2,5.00,000.00,024.3,022.5,000.0,032.9,025.8,011.6,0000.0,0018.60,0004.22,0002.65
2024-04-15 02:33:00,SystemResetWarning,0821.3,5.00,000.00,024.3,022.8,000.0,032.9,026.0,011.7,0000.0,0018.54,0004.22,0002.64
2024-04-15 02:34:00,SystemResetWarning,0821.3,5.00,000.00,024.4,023.1,000.0,032.8,026.2,011.6,0000.0,0017.58,0004.24,0002.63
2024-04-15 02:35:00,SystemResetWarning,0821.3,5.00,000.00,024.5,023.4,000.0,032.8,026.4,011.6,0000.0,0017.43,0004.22,0002.64
2024-04-15 02:36:00,SystemResetWarning,0821.3,5.00,000.00,024.5,023.6,000.0,032.8,026.5,011.6,0000.0,0017.20,0004.18,0002.64
2024-04-15 02:37:00,SystemResetWarning,0821.4,4.99,000.00,024.6,023.8,000.0,032.8,026.6,011.6,0000.0,0018.17,0004.18,0002.64
2024-04-15 02:38:00,SystemResetWarning,0821.6,4.99,000.00,024.7,024.0,000.0,032.9,026.7,011.3,0000.0,0017.96,0004.18,0002.63
2024-04-15 02:39:00,SystemResetWarning,0822.0,5.01,000.00,024.8,024.2,000.0,032.9,026.8,011.3,0000.0,0017.25,0004.15,0002.61
2024-04-15 02:40:00,SystemResetWarning,0822.0,5.00,000.00,024.9,024.3,000.0,032.9,026.8,011.1,0000.0,0016.97,0004.11,0002.61
2024-04-15 02:41:00,SystemResetWarning,0821.6,5.00,000.00,024.9,024.4,000.0,033.0,026.9,011.0,0000.0,0015.71,0004.11,0002.61
2024-04-15 02:42:00,SystemResetWarning,0821.6,5.00,000.00,025.0,024.5,000.0,033.0,027.0,011.7,0000.0,0016.23,0004.08,0002.62
2024-04-15 02:43:00,SystemResetWarning,0821.6,4.99,000.00,025.1,024.7,000.0,033.1,027.1,011.6,0000.0,0016.24,0004.08,0002.62
2024-04-15 02:44:00,SystemResetWarning,0821.6,5.01,000.00,025.2,024.8,000.0,033.1,027.1,011.4,0000.0,0016.23,0004.07,0002.64
2024-04-15 02:45:00,SystemResetWarning,0821.7,5.01,000.00,025.2,024.9,000.0,033.2,027.2,011.2,0000.0,0016.08,0004.03,0002.64
2024-04-15 02:46:00,SystemResetWarning,0821.7,5.00,000.00,025.3,024.9,000.0,033.2,027.3,011.4,0000.0,0016.11,0004.05,0002.63
2024-04-15 02:47:00,SystemResetWarning,0821.7,4.99,000.00,025.3,024.5,000.0,033.3,027.0,011.5,0000.0,0015.97,0004.09,0002.62
2024-04-15 02:48:00,SystemResetWarning,0821.7,5.00,000.00,025.0,022.3,000.0,033.4,025.8,011.8,0000.0,0014.37,0004.09,0002.63
2024-04-15 02:49:00,SystemResetWarning,0821.7,5.02,000.00,024.6,021.9,000.0,033.4,025.4,011.8,0000.0,0013.12,0004.06,0002.62
2024-04-15 02:50:00,SystemResetWarning,0821.8,5.00,000.00,024.5,022.2,000.0,033.2,025.6,011.8,0000.0,0013.19,0004.07,0002.63
2024-04-15 02:51:00,SystemResetWarning,0821.8,5.00,000.00,024.5,022.6,000.0,033.1,025.9,011.8,0000.0,0012.59,0004.05,0002.62
2024-04-15 02:52:00,SystemResetWarning,0822.0,5.00,000.00,024.6,022.9,000.0,033.1,026.2,012.2,0000.0,0012.33,0003.99,0002.61
2024-04-15 02:53:00,SystemResetWarning,0822.0,5.00,000.00,024.7,023.2,000.0,033.1,026.4,012.4,0000.0,0011.98,0003.97,0002.60
2024-04-15 02:54:00,SystemResetWarning,0821.9,5.00,000.00,024.7,023.5,000.0,033.1,026.5,012.2,0000.0,0011.41,0003.95,0002.59
2024-04-15 02:55:00,SystemResetWarning,0821.7,4.99,000.00,024.8,023.8,000.0,033.1,026.6,011.8,0000.0,0011.24,0003.95,0002.59
2024-04-15 02:56:00,SystemResetWarning,0821.8,5.01,000.00,024.8,024.0,000.0,033.1,026.7,011.5,0000.0,0012.07,0003.98,0002.60
2024-04-15 02:57:00,SystemResetWarning,0821.8,5.00,000.00,024.9,024.1,000.0,033.1,026.8,010.9,0000.0,0011.99,0003.99,0002.61
2024-04-15 02:58:00,SystemResetWarning,0821.9,5.00,000.00,025.0,024.3,000.0,033.1,026.9,011.1,0000.0,0012.65,0003.99,0002.62
2024-04-15 02:59:00,SystemResetWarning,0821.9,4.99,000.00,025.0,024.4,000.0,033.2,027.0,012.3,0000.0,0013.55,0003.97,0002.63
